This is the latest recevied weather packets stored in our database for station/object N4PWG. If no packets are shown the sender has not sent any weather packets the latest 1 day(s).
| Time | Temp. | Humidity | Pressure | Rain* | Wind** | Luminosity | Snow |
|---|---|---|---|---|---|---|---|
| 1778057690 | 10° C | 99% | 1027.5 hPa | 0 mm | - | 0 W/m² | - |
| 1778057386 | 10° C | 99% | 1027.4 hPa | 0 mm | - | 0 W/m² | - |
| 1778057083 | 10° C | 99% | 1027.2 hPa | 0 mm | - | 0 W/m² | - |
| 1778056779 | 10° C | 99% | 1027.4 hPa | 0 mm | - | 0 W/m² | - |
| 1778056174 | 10° C | 99% | 1027 hPa | 0 mm | - | 0 W/m² | - |
| 1778055265 | 10° C | 99% | 1026.9 hPa | 0 mm | - | 0 W/m² | - |
| 1778054962 | 10° C | 99% | 1026.8 hPa | 0 mm | - | 0 W/m² | - |
| 1778054658 | 10° C | 99% | 1026.5 hPa | 0 mm | - | 0 W/m² | - |
| 1778054356 | 10° C | 99% | 1026.7 hPa | 1.78 mm | - | 0 W/m² | - |
| 1778054054 | 10° C | 99% | 1026.5 hPa | 1.78 mm | - | 0 W/m² | - |
| 1778053145 | 10° C | 99% | 1026.7 hPa | 0 mm | - | 0 W/m² | - |
| 1778052540 | 10° C | 99% | 1027 hPa | 0 mm | - | 0 W/m² | - |
| 1778052237 | 10° C | 99% | 1026.9 hPa | 0 mm | - | 0 W/m² | - |
| 1778051026 | 10° C | 99% | 1026.9 hPa | 0 mm | - | 0 W/m² | - |
| 1778050723 | 10° C | 99% | 1026.9 hPa | 0 mm | - | 0 W/m² | - |
| 1778049510 | 10.56° C | 99% | 1026.9 hPa | 0 mm | - | 0 W/m² | - |
| 1778049208 | 10.56° C | 99% | 1027 hPa | 0 mm | - | 0 W/m² | - |
| 1778048906 | 10.56° C | 99% | 1027.1 hPa | 1.27 mm | - | 0 W/m² | - |
| 1778048603 | 10.56° C | 99% | 1027 hPa | 7.11 mm | - | 0 W/m² | - |
| 1778047089 | 10.56° C | 99% | 1026.2 hPa | 3.05 mm | - | 0 W/m² | - |
| 1778046786 | 10.56° C | 99% | 1025.8 hPa | 3.05 mm | - | 0 W/m² | - |
| 1778046180 | 10.56° C | 99% | 1025.9 hPa | 0 mm | - | 0 W/m² | - |
| 1778045876 | 10.56° C | 99% | 1026.1 hPa | 0 mm | - | 0 W/m² | - |
| 1778045272 | 10.56° C | 99% | 1025.9 hPa | 0 mm | - | 0 W/m² | - |
| 1778044667 | 11.11° C | 99% | 1025.8 hPa | 1.27 mm | - | 0 W/m² | - |
* Rain latest hour (hover to see other rain measurements)
** Current wind speed in m/s (hover to see current wind gust speed)